Regional Weather Roundup
Issued by NWS

Home | Current Version | Previous Version | Text Only | Print | Product List | Glossary Off
Versions: 1 2 3 4 5 6 7 8 9 10 11 12 13 14 15 16 17 18 19 20 21 22 23 24 25 26 27 28 29 30 31 32 33 34 35 36 37 38 39 40 41 42 43 44 45 46 47 48 49 50

000
ASUS44 KMEG 201400
RWRTN
TENNESSEE HOURLY STATE WEATHER ROUNDUP
NATIONAL WEATHER SERVICE MEMPHIS TN
800 AM CST FRI JAN 20 2017

TNZ002-004-019-021-049-052-054-088>092-201500-
WEST TENNESSEE

CITY           SKY/WX    TMP DP  RH WIND       PRES   REMARKS
MEMPHIS INTL   CLOUDY    58  56  93 SW9G17    29.74R
NWS MEMPHIS      N/A     57 N/A N/A MISG        N/A
JACKSON        CLOUDY    57  55  93 S8        29.75R
DYERSBURG      CLOUDY    55  52  88 S5        29.72R
UNION CITY     CLOUDY   N/A N/A N/A CALM      29.71S
PARIS          CLOUDY    54  54 100 CALM      29.74S
$$

TNZ008-025-027-028-033-062-065-066-201500-
NORTH MIDDLE TENNESSEE

CITY           SKY/WX    TMP DP  RH WIND       PRES   REMARKS
NASHVILLE      PTSUNNY   55  53  93 S8        29.78R
CLARKSVILLE    MOCLDY    56  53  90 SW7       29.76R
SMYRNA         PTSUNNY   56  55  97 S6        29.80S
CROSSVILLE     CLOUDY    55  53  93 W5        29.83R
$$

TNZ061-075-076-078-094-096-097-201500-
SOUTH MIDDLE TENNESSEE

CITY           SKY/WX    TMP DP  RH WIND       PRES   REMARKS
TULLAHOMA      CLOUDY    55  54  94 SW6       29.82R
WINCHESTER     CLOUDY    57  54  88 SW3       29.83R
MCMINNVILLE    CLOUDY    57  57 100 S6        29.81R
COLUMBIA       SUNNY    N/A N/A N/A S3        29.77S
SHELBYVILLE    CLOUDY    57  57 100 S6        29.81S
$$

TNZ017-018-042-046-047-201500-
NORTHEAST TENNESSEE

CITY           SKY/WX    TMP DP  RH WIND       PRES   REMARKS
TRI CITIES     LGT RAIN  53  52  96 CALM      29.84R FOG
$$

TNZ012-013-036-069-073-074-201500-
CENTRAL EAST TENNESSEE

CITY           SKY/WX    TMP DP  RH WIND       PRES   REMARKS
KNOXVILLE      CLOUDY    57  55  93 SW7       29.82R
OAK RIDGE      FOG       54  53  97 CALM      29.84R VSB 1
GATLINBURG     MOSUNNY   52  52 100 CALM      29.82R
$$

TNZ083-085-099-201500-
SOUTHEAST TENNESSEE

CITY           SKY/WX    TMP DP  RH WIND       PRES   REMARKS
CHATTANOOGA    PTSUNNY   58  56  93 S6        29.83R
$$

SKY/WX REPORTED AS FAIR MEANS FEW OR NO CLOUDS BELOW
12 THOUSAND FEET.





USA.gov is the U.S. government's official web portal to all federal, state and local government web resources and services.